"2009-05-19 00:00:00",898873,4.73,152,2.687,0.141,21.5,110.5222,26.24,27.21,10.73,0,111.3,13.09,27.08,114.0
"2009-05-19 00:00:30",898874,4.97,146.2,3.272,0.252,21.49,110.5152,26.22,27.21,10.66,0,111.3,13.09,27.06,108.2
"2009-05-19 00:01:00",898875,4.628,146.4,2.074,0.166,21.49,110.5113,26.21,27.21,10.62,0,111.3,13.09,27.05,108.4
"2009-05-19 00:01:30",898876,4.621,147.1,2.403,0.131,21.5,110.5074,26.2,27.2,10.46,0,111.3,13.09,27.04,109.1
"2009-05-19 00:02:00",898877,4.842,153.1,2.457,0.118,21.56,110.5026,26.19,27.2,10.61,0,111.3,13.09,27.03,115.1
"2009-05-19 00:02:30",898878,4.612,162.1,4.872,0.338,21.54,110.5015,26.18,27.21,11.03,0,111.3,13.09,27.03,124.1
"2009-05-19 00:03:00",898879,4.807,153.6,3.842,0.36,21.51,110.5015,26.18,27.21,11.06,0,111.3,13.09,27.03,115.6
"2009-05-19 00:03:30",898880,4.082,162.6,11.23,0.516,21.53,110.5012,26.18,27.19,11.03,0,111.3,13.09,27.03,124.6
"2009-05-19 00:04:00",898881,3.832,178.3,2.14,0.14,21.51,110.4897,26.15,27.18,10.78,0,111.3,13.09,27.00,140.3
"2009-05-19 00:04:30",898882,3.712,175.1,2.996,0.281,21.52,110.4777,26.12,27.17,10.56,0,111.3,13.09,26.97,137.1
"2009-05-19 00:05:00",898883,3.755,179.5,5.869,0.207,21.41,110.4763,26.12,27.16,10.57,0,111.3,13.09,26.96,141.5
"2009-05-19 00:05:30",898884,3.913,161.6,6.887,0.19,21.41,110.4741,26.11,27.17,10.61,0,111.3,13.09,26.96,123.6
"2009-05-19 00:06:00",898885,3.7,164.2,2.47,0.181,21.41,110.4698,26.1,27.15,10.67,0,111.3,13.09,26.94,126.2
"2009-05-19 00:06:30",898886,4.817,151.5,2.279,0.265,21.39,110.4679,26.1,27.14,10.62,0,111.3,13.09,26.94,113.5
"2009-05-19 00:07:00",898887,4.439,159.1,3.163,0.214,21.37,110.4679,26.1,27.14,10.58,0,111.3,13.09,26.94,121.1
"2009-05-19 00:07:30",898888,4.801,150,4.812,0.394,21.38,110.4679,26.1,27.13,10.51,0,111.3,13.09,26.94,112.0
"2009-05-19 00:08:00",898889,4.901,143.9,2.313,0.33,21.35,110.467,26.09,27.13,10.63,0,111.3,13.09,26.94,105.9
"2009-05-19 00:08:30",898890,4.723,147.9,2.001,0.165,21.22,110.4673,26.1,27.13,10.67,0,111.3,13.09,26.94,109.9
"2009-05-19 00:09:00",898891,4.331,151.8,7.733,0.199,21.22,110.4665,26.09,27.12,10.68,0,111.3,13.09,26.94,113.8
"2009-05-19 00:09:30",898892,3.722,149.1,1.981,0.201,21.2,110.4696,26.1,27.12,10.77,0,111.3,13.09,26.94,111.1
"2009-05-19 00:10:00",898893,3.764,149.9,1.876,0.12,21.18,110.4708,26.1,27.12,10.77,0,111.3,13.09,26.95,111.9
"2009-05-19 00:10:30",898894,4.116,152.5,2.97,0.56,21.15,110.4735,26.11,27.12,10.68,0,111.3,13.09,26.95,114.5
"2009-05-19 00:11:00",898895,4.963,147.6,3.81,0.172,21.13,110.4795,26.13,27.12,10.58,0,111.3,13.09,26.97,109.6
"2009-05-19 00:11:30",898896,4.28,151,4.611,0.155,21.15,110.4783,26.12,27.13,10.58,0,111.3,13.09,26.97,113.0
"2009-05-19 00:12:00",898897,4.408,147.4,2.392,0.17,21.16,110.4823,26.13,27.12,10.57,0,111.3,13.09,26.98,109.4
"2009-05-19 00:12:30",898898,4.887,140.4,2.201,0.3,21.12,110.4862,26.14,27.12,10.61,0,111.3,13.09,26.99,102.4
"2009-05-19 00:13:00",898899,3.943,146,2.887,0.305,21.17,110.4886,26.15,27.12,10.62,0,111.3,13.09,26.99,108.0
"2009-05-19 00:13:30",898900,4.483,152.3,5.401,0.334,21.21,110.4902,26.15,27.12,10.65,0,111.3,13.09,27.00,114.3
"2009-05-19 00:14:00",898901,4.932,152.3,2.326,0.276,21.21,110.4923,26.16,27.14,10.62,0,111.3,13.09,27.00,114.3
"2009-05-19 00:14:30",898902,4.774,148,3.046,0.183,21.22,110.4933,26.16,27.13,10.61,0,111.3,13.09,27.01,110.0
"2009-05-19 00:15:00",898903,4.13,144.4,4.305,0.349,21.22,110.4953,26.17,27.14,10.62,0,111.2,13.09,27.01,106.4
"2009-05-19 00:15:30",898904,4.364,145.8,7.976,0.345,21.26,110.503,26.19,27.16,10.6,0,111.3,13.09,27.03,107.8
"2009-05-19 00:16:00",898905,3.649,155.5,5.231,0.182,21.22,110.5036,26.19,27.17,10.58,0,111.3,13.09,27.03,117.5
"2009-05-19 00:16:30",898906,3.708,153.7,5.167,0.144,21.21,110.5089,26.2,27.16,10.56,0,111.2,13.1,27.05,115.7
"2009-05-19 00:17:00",898907,3.761,143.6,3.699,0.202,21.21,110.5213,26.23,27.17,10.83,0,111.2,13.09,27.08,105.6
"2009-05-19 00:17:30",898908,3.901,151.5,3.195,0.183,21.16,110.5289,26.25,27.19,10.83,0,111.3,13.1,27.10,113.5
"2009-05-19 00:18:00",898909,3.904,154.1,2.629,0.203,21.16,110.5291,26.25,27.2,10.8,0,111.3,13.1,27.10,116.1
"2009-05-19 00:18:30",898910,4.239,149.2,3.934,0.156,21.13,110.5291,26.25,27.2,10.87,0,111.3,13.1,27.10,111.2
"2009-05-19 00:19:00",898911,4.41,147.1,1.485,0.118,21.14,110.5294,26.26,27.21,10.83,0,111.2,13.1,27.10,109.1
"2009-05-19 00:19:30",898912,3.831,146.2,1.71,0.179,21.13,110.5322,26.26,27.22,10.71,0,111.2,13.1,27.11,108.2
"2009-05-19 00:20:00",898913,4.093,149,3.172,0.25,21.1,110.5384,26.28,27.23,10.65,0,111.2,13.1,27.12,111.0
"2009-05-19 00:20:30",898914,4.188,149.4,2.336,0.196,21.1,110.5502,26.31,27.24,10.64,0,111.3,13.1,27.15,111.4
"2009-05-19 00:21:00",898915,4.45,154.6,3.625,0.215,21.13,110.5617,26.34,27.25,10.66,0,111.3,13.1,27.18,116.6
"2009-05-19 00:21:30",898916,4.479,159.4,2.63,0.13,21.1,110.5622,26.34,27.26,10.64,0,111.3,13.1,27.18,121.4
"2009-05-19 00:22:00",898917,4.442,153.3,1.553,0.1,21.04,110.5631,26.34,27.28,10.7,0,111.3,13.1,27.19,115.3
"2009-05-19 00:22:30",898918,4.652,151.3,1.906,0.08,21.07,110.5667,26.35,27.29,10.71,0,111.3,13.1,27.19,113.3
"2009-05-19 00:23:00",898919,4.874,152.9,3.358,0.162,21.11,110.57,26.36,27.31,10.71,0,111.3,13.1,27.20,114.9
"2009-05-19 00:23:30",898920,4.857,155.8,2.65,0.143,21.15,110.5744,26.37,27.33,10.79,0,111.3,13.1,27.21,117.8
"2009-05-19 00:24:00",898921,5.103,158.2,2.225,0.164,21.08,110.5863,26.4,27.33,10.85,0,111.3,13.1,27.25,120.2
"2009-05-19 00:24:30",898922,5.283,156.9,2.934,0.133,21.14,110.595,26.42,27.36,10.84,0,111.3,13.1,27.27,118.9
"2009-05-19 00:25:00",898923,4.873,153.6,1.047,0.15,21.12,110.5961,26.43,27.38,10.8,0,111.3,13.1,27.27,115.6
"2009-05-19 00:25:30",898924,4.719,153.5,1.688,0.079,21.1,110.5961,26.43,27.37,10.85,0,111.3,13.1,27.27,115.5
"2009-05-19 00:26:00",898925,4.626,151.4,1.498,0.123,21.09,110.5958,26.43,27.37,10.85,0,111.3,13.09,27.27,113.4
"2009-05-19 00:26:30",898926,4.485,150.2,1.462,0.072,21.08,110.6002,26.44,27.4,10.82,0,111.3,13.09,27.28,112.2
"2009-05-19 00:27:00",898927,4.614,151.5,1.354,0.121,21.1,110.6037,26.45,27.4,10.88,0,111.3,13.09,27.29,113.5
"2009-05-19 00:27:30",898928,4.33,152.8,3.532,0.069,21.16,110.6042,26.45,27.42,10.88,0,111.3,13.09,27.29,114.8
"2009-05-19 00:28:00",898929,4.359,154,1.015,0.12,21.14,110.6059,26.45,27.41,10.86,0,111.3,13.09,27.30,116.0
"2009-05-19 00:28:30",898930,4.366,150.8,1.486,0.086,21.19,110.6175,26.48,27.43,10.84,0,111.3,13.09,27.33,112.8
"2009-05-19 00:29:00",898931,4.27,149.1,1.421,0.112,21.17,110.6242,26.5,27.44,10.85,0,111.3,13.09,27.34,111.1
"2009-05-19 00:29:30",898932,4.345,154.7,3.419,0.224,21.16,110.629,26.51,27.43,10.84,0,111.3,13.09,27.36,116.7
"2009-05-19 00:30:00",898933,4.534,162.1,1.719,0.196,21.17,110.6293,26.51,27.45,10.8,0,111.3,13.09,27.36,124.1
"2009-05-19 00:30:30",898934,4.948,162.2,3.377,0.22,21.21,110.6301,26.51,27.46,10.76,0,111.3,13.09,27.36,124.2
"2009-05-19 00:31:00",898935,5.213,165.5,1.216,0.182,21.27,110.6298,26.51,27.47,10.68,0,111.3,13.09,27.36,127.5
"2009-05-19 00:31:30",898936,5.157,167.5,1.775,0.126,21.24,110.6301,26.51,27.48,10.72,0,111.3,13.09,27.36,129.5
"2009-05-19 00:32:00",898937,5.064,164.7,3.125,0.192,21.21,110.6295,26.51,27.48,10.69,0,111.3,13.09,27.36,126.7
"2009-05-19 00:32:30",898938,4.865,161.5,0.862,0.139,21.17,110.6298,26.51,27.48,10.67,0,111.3,13.09,27.36,123.5
"2009-05-19 00:33:00",898939,4.919,163.8,1.035,0.181,21.19,110.6301,26.51,27.49,10.64,0,111.3,13.09,27.36,125.8
"2009-05-19 00:33:30",898940,4.964,167.5,1.108,0.169,21.24,110.6295,26.51,27.5,10.47,0,111.3,13.09,27.36,129.5
"2009-05-19 00:34:00",898941,5.157,167.4,1.186,0.116,21.28,110.6298,26.51,27.49,10.44,0,111.3,13.09,27.36,129.4
"2009-05-19 00:34:30",898942,4.885,168.7,1.43,0.2,21.25,110.6298,26.51,27.49,10.43,0,111.3,13.09,27.36,130.7
"2009-05-19 00:35:00",898943,4.676,169.8,1.181,0.109,21.26,110.6301,26.51,27.5,10.54,0,111.3,13.09,27.36,131.8
"2009-05-19 00:35:30",898944,4.687,168.6,1.021,0.059,21.25,110.628,26.51,27.49,10.5,0,111.3,13.09,27.35,130.6
"2009-05-19 00:36:00",898945,4.586,169.1,0.864,0.115,21.29,110.6277,26.51,27.49,10.38,0,111.3,13.09,27.35,131.1
"2009-05-19 00:36:30",898946,4.675,169,0.586,0.079,21.33,110.628,26.51,27.49,10.36,0,111.3,13.09,27.35,131.0
"2009-05-19 00:37:00",898947,4.727,169.5,0.49,0.059,21.34,110.6274,26.51,27.48,10.3,0,111.3,13.09,27.35,131.5
"2009-05-19 00:37:30",898948,4.692,170.7,0.88,0.055,21.44,110.6255,26.5,27.47,10.34,0,111.3,13.09,27.35,132.7
"2009-05-19 00:38:00",898949,4.533,167.8,1.672,0.103,21.52,110.6172,26.48,27.48,10.34,0,111.3,13.09,27.33,129.8
"2009-05-19 00:38:30",898950,4.761,169.6,1.368,0.091,21.54,110.6065,26.45,27.46,10.5,0,111.3,13.09,27.30,131.6
"2009-05-19 00:39:00",898951,4.553,169.4,1.265,0.11,21.39,110.604,26.45,27.48,10.54,0,111.3,13.09,27.29,131.4
"2009-05-19 00:39:30",898952,4.89,170.7,1.252,0.117,21.35,110.6001,26.44,27.48,10.49,0,111.3,13.09,27.28,132.7
"2009-05-19 00:40:00",898953,4.921,169.7,0.87,0.078,21.31,110.5967,26.43,27.46,10.44,0,111.3,13.09,27.27,131.7
"2009-05-19 00:40:30",898954,4.734,166.8,1.139,0.066,21.24,110.5964,26.43,27.44,10.33,0,111.3,13.09,27.27,128.8
"2009-05-19 00:41:00",898955,4.685,165.7,1.028,0.09,21.2,110.5967,26.43,27.43,10.35,0,111.3,13.09,27.27,127.7
"2009-05-19 00:41:30",898956,4.664,170,1.206,0.102,21.2,110.5965,26.43,27.44,10.31,0,111.3,13.1,27.27,132.0
"2009-05-19 00:42:00",898957,4.826,169.4,1.282,0.109,21.19,110.5953,26.42,27.43,10.33,0,111.3,13.09,27.27,131.4
"2009-05-19 00:42:30",898958,4.843,173.3,0.928,0.211,21.19,110.5906,26.41,27.42,10.33,0,111.3,13.09,27.26,135.3
"2009-05-19 00:43:00",898959,4.681,168.8,1.507,0.088,21.17,110.5889,26.41,27.42,10.33,0,111.3,13.09,27.25,130.8
"2009-05-19 00:43:30",898960,4.491,167.7,1.265,0.14,21.16,110.5886,26.41,27.4,10.34,0,111.3,13.09,27.25,129.7
"2009-05-19 00:44:00",898961,4.464,169.3,1.633,0.093,21.17,110.5844,26.4,27.41,10.32,0,111.3,13.09,27.24,131.3
"2009-05-19 00:44:30",898962,4.691,166.7,0.952,0.073,21.18,110.5866,26.4,27.41,10.34,0,111.3,13.09,27.25,128.7
"2009-05-19 00:45:00",898963,5.01,170.7,2.042,0.209,21.19,110.5883,26.41,27.41,10.33,0,111.3,13.09,27.25,132.7
"2009-05-19 00:45:30",898964,5.466,169.1,1.17,0.146,21.24,110.588,26.41,27.4,10.26,0,111.3,13.09,27.25,131.1
"2009-05-19 00:46:00",898965,5.86,167.2,1.398,0.184,21.25,110.5891,26.41,27.39,10.36,0,111.3,13.09,27.25,129.2
"2009-05-19 00:46:30",898966,5.923,169.6,1.021,0.196,21.29,110.5882,26.41,27.4,10.4,0,111.3,13.09,27.25,131.6
"2009-05-19 00:47:00",898967,6.12,171.8,1.488,0.116,21.32,110.5866,26.4,27.38,10.38,0,111.3,13.09,27.25,133.8
"2009-05-19 00:47:30",898968,5.785,169.9,1.048,0.122,21.32,110.5855,26.4,27.4,10.41,0,111.3,13.09,27.24,131.9
"2009-05-19 00:48:00",898969,5.673,170.3,1.212,0.121,21.32,110.5785,26.38,27.4,10.42,0,111.3,13.09,27.23,132.3
"2009-05-19 00:48:30",898970,5.782,170.7,1.582,0.07,21.31,110.5746,26.37,27.4,10.36,0,111.3,13.09,27.22,132.7
"2009-05-19 00:49:00",898971,5.677,170.1,1.02,0.088,21.32,110.5712,26.36,27.38,10.28,0,111.3,13.09,27.21,132.1
"2009-05-19 00:49:30",898972,5.899,169.9,0.38,0.053,21.37,110.568,26.35,27.38,10.24,0,111.3,13.09,27.20,131.9
"2009-05-19 00:50:00",898973,5.921,168.6,1.05,0.055,21.38,110.5672,26.35,27.38,10.23,0,111.3,13.09,27.20,130.6
"2009-05-19 00:50:30",898974,5.839,170.8,2.09,0.13,21.38,110.5682,26.35,27.39,10.25,0,111.3,13.09,27.20,132.8
"2009-05-19 00:51:00",898975,5.661,171.3,1.2,0.181,21.35,110.5657,26.35,27.37,10.28,0,111.3,13.09,27.19,133.3
"2009-05-19 00:51:30",898976,5.642,169.2,0.969,0.137,21.34,110.5637,26.34,27.36,10.25,0,111.3,13.09,27.19,131.2
"2009-05-19 00:52:00",898977,5.638,171.5,2.905,0.206,21.32,110.563,26.34,27.36,10.24,0,111.3,13.09,27.19,133.5
"2009-05-19 00:52:30",898978,5.377,171.3,2.522,0.206,21.3,110.5606,26.34,27.36,10.26,0,111.3,13.09,27.18,133.3
"2009-05-19 00:53:00",898979,5.201,170.6,0.831,0.109,21.32,110.5612,26.34,27.35,10.24,0,111.3,13.09,27.18,132.6
"2009-05-19 00:53:30",898980,5.144,170.4,1.524,0.079,21.3,110.5618,26.34,27.34,10.24,0,111.3,13.09,27.18,132.4
"2009-05-19 00:54:00",898981,4.966,169.4,0.839,0.102,21.33,110.5606,26.34,27.35,10.24,0,111.3,13.09,27.18,131.4
"2009-05-19 00:54:30",898982,5.165,169.6,0.932,0.066,21.33,110.5618,26.34,27.35,10.24,0,111.3,13.1,27.18,131.6
"2009-05-19 00:55:00",898983,5.116,169.1,1.297,0.068,21.3,110.5621,26.34,27.34,10.26,0,111.3,13.1,27.18,131.1
"2009-05-19 00:55:30",898984,5.071,167.4,0.914,0.078,21.29,110.5618,26.34,27.33,10.25,0,111.3,13.09,27.18,129.4
"2009-05-19 00:56:00",898985,5.094,166,1.651,0.124,21.3,110.5618,26.34,27.33,10.25,0,111.3,13.1,27.18,128.0
"2009-05-19 00:56:30",898986,5.054,164.1,1.1,0.089,21.31,110.5615,26.34,27.32,10.26,0,111.3,13.09,27.18,126.1
"2009-05-19 00:57:00",898987,5.079,165.4,1.746,0.103,21.39,110.5628,26.34,27.32,10.26,0,111.3,13.09,27.18,127.4
"2009-05-19 00:57:30",898988,5.082,165.2,1.357,0.106,21.32,110.5628,26.34,27.33,10.29,0,111.3,13.09,27.18,127.2
"2009-05-19 00:58:00",898989,4.927,167.4,1.217,0.142,21.38,110.5631,26.34,27.33,10.34,0,111.3,13.09,27.19,129.4
"2009-05-19 00:58:30",898990,4.933,166.1,0.926,0.077,21.36,110.5631,26.34,27.33,10.35,0,111.3,13.09,27.19,128.1
"2009-05-19 00:59:00",898991,4.906,162.2,1.513,0.056,21.36,110.5625,26.34,27.34,10.34,0,111.3,13.09,27.18,124.2
"2009-05-19 00:59:30",898992,4.938,165.2,1.069,0.111,21.46,110.5611,26.34,27.31,10.33,0,111.3,13.1,27.18,127.2
"2009-05-19 01:00:00",898993,5.24,166.1,1.591,0.134,21.45,110.5603,26.33,27.31,10.34,0,111.3,13.09,27.18,128.1
"2009-05-19 01:00:30",898994,5.345,166.2,0.806,0.063,21.43,110.558,26.33,27.31,10.31,0,111.3,13.09,27.17,128.2
"2009-05-19 01:01:00",898995,5.481,165.8,1.331,0.092,21.38,110.551,26.31,27.32,10.27,0,111.3,13.09,27.15,127.8
"2009-05-19 01:01:30",898996,5.927,166.5,0.825,0.169,21.35,110.5463,26.3,27.31,10.27,0,111.3,13.09,27.14,128.5
"2009-05-19 01:02:00",898997,6.206,165.8,0.763,0.092,21.35,110.5401,26.28,27.31,10.29,0,111.3,13.09,27.13,127.8
"2009-05-19 01:02:30",898998,6.062,166.7,1.172,0.088,21.41,110.5334,26.27,27.3,10.29,0,111.3,13.09,27.11,128.7
"2009-05-19 01:03:00",898999,5.871,165.3,0.709,0.164,21.36,110.5303,26.26,27.28,10.31,0,111.3,13.09,27.10,127.3
"2009-05-19 01:03:30",899000,5.613,165.4,2.149,0.099,21.32,110.5306,26.26,27.29,10.3,0,111.3,13.09,27.10,127.4
"2009-05-19 01:04:00",899001,5.652,167,2.804,0.126,21.36,110.5303,26.26,27.28,10.3,0,111.3,13.09,27.10,129.0
"2009-05-19 01:04:30",899002,5.756,166.4,0.793,0.12,21.34,110.5307,26.26,27.27,10.28,0,111.3,13.09,27.10,128.4
"2009-05-19 01:05:00",899003,5.987,166.3,0.779,0.09,21.42,110.5307,26.26,27.27,10.36,0,111.3,13.09,27.10,128.3
"2009-05-19 01:05:30",899004,5.965,164.4,0.858,0.17,21.32,110.5313,26.26,27.27,10.43,0,111.3,13.09,27.10,126.4
"2009-05-19 01:06:00",899005,6.162,163.5,1.121,0.118,21.34,110.5303,26.26,27.26,10.45,0,111.3,13.09,27.10,125.5
"2009-05-19 01:06:30",899006,5.854,163.8,1.688,0.16,21.32,110.5316,26.26,27.28,10.44,0,111.3,13.09,27.10,125.8
"2009-05-19 01:07:00",899007,5.958,165.9,0.655,0.157,21.37,110.53,26.26,27.26,10.4,0,111.3,13.1,27.10,127.9
"2009-05-19 01:07:30",899008,5.976,164.1,1.447,0.098,21.36,110.5313,26.26,27.27,10.41,0,111.3,13.1,27.10,126.1
"2009-05-19 01:08:00",899009,5.848,164.8,1.279,0.086,21.33,110.5328,26.26,27.25,10.41,0,111.3,13.1,27.11,126.8
"2009-05-19 01:08:30",899010,5.772,165.6,0.886,0.054,21.33,110.535,26.27,27.27,10.43,0,111.3,13.1,27.11,127.6
"2009-05-19 01:09:00",899011,5.681,167.2,1.164,0.092,21.39,110.5353,26.27,27.27,10.46,0,111.3,13.1,27.11,129.2
"2009-05-19 01:09:30",899012,5.819,163.9,0.607,0.102,21.33,110.5369,26.27,27.26,10.48,0,111.3,13.1,27.12,125.9
"2009-05-19 01:10:00",899013,5.916,164.6,0.631,0.125,21.47,110.5353,26.27,27.27,10.49,0,111.3,13.1,27.11,126.6
"2009-05-19 01:10:30",899014,5.923,164.1,0.435,0.038,21.48,110.5369,26.27,27.25,10.5,0,111.3,13.1,27.12,126.1
"2009-05-19 01:11:00",899015,6.161,166.2,1.019,0.092,21.46,110.5353,26.27,27.25,10.57,0,111.3,13.1,27.11,128.2
"2009-05-19 01:11:30",899016,6.297,165.7,0.879,0.072,21.41,110.5365,26.27,27.25,10.51,0,111.3,13.1,27.12,127.7
"2009-05-19 01:12:00",899017,6.341,164.8,1.007,0.099,21.34,110.5359,26.27,27.24,10.54,0,111.3,13.1,27.12,126.8
"2009-05-19 01:12:30",899018,6.177,164.4,1.088,0.187,21.37,110.5354,26.27,27.24,10.59,0,111.3,13.1,27.11,126.4
"2009-05-19 01:13:00",899019,6.234,163.1,0.899,0.151,21.33,110.5285,26.25,27.24,10.6,0,111.3,13.1,27.10,125.1
"2009-05-19 01:13:30",899020,6.09,161.6,1.136,0.105,21.33,110.5222,26.24,27.23,10.59,0,111.3,13.1,27.08,123.6
"2009-05-19 01:14:00",899021,6.242,162.2,0.745,0.12,21.25,110.5157,26.22,27.23,10.59,0,111.3,13.1,27.06,124.2
"2009-05-19 01:14:30",899022,6.147,164,1.286,0.093,21.34,110.5134,26.21,27.23,10.6,0,111.3,13.1,27.06,126.0
"2009-05-19 01:15:00",899023,6.261,163.5,0.698,0.185,21.37,110.5106,26.21,27.23,10.6,0,111.3,13.1,27.05,125.5
"2009-05-19 01:15:30",899024,6.477,163.9,0.899,0.065,21.42,110.5047,26.19,27.21,10.57,0,111.3,13.1,27.03,125.9
"2009-05-19 01:16:00",899025,6.459,163.7,0.68,0.073,21.44,110.5044,26.19,27.23,10.54,0,111.3,13.1,27.03,125.7
"2009-05-19 01:16:30",899026,6.373,165,0.866,0.08,21.37,110.505,26.19,27.2,10.53,0,111.3,13.1,27.04,127.0
"2009-05-19 01:17:00",899027,6.288,167,1.229,0.076,21.4,110.5047,26.19,27.2,10.46,0,111.3,13.1,27.03,129.0
"2009-05-19 01:17:30",899028,6.304,168.4,0.657,0.112,21.43,110.505,26.19,27.19,10.41,0,111.3,13.09,27.04,130.4
"2009-05-19 01:18:00",899029,6.398,169.1,0.669,0.055,21.47,110.5036,26.19,27.2,10.39,0,111.3,13.09,27.03,131.1
"2009-05-19 01:18:30",899030,6.431,171.1,0.55,0.045,21.5,110.5014,26.18,27.19,10.31,0,111.3,13.09,27.03,133.1
"2009-05-19 01:19:00",899031,6.357,170.7,1.085,0.093,21.54,110.4997,26.18,27.18,10.29,0,111.3,13.09,27.02,132.7
"2009-05-19 01:19:30",899032,6.302,170.4,0.885,0.06,21.55,110.4947,26.17,27.17,10.29,0,111.3,13.09,27.01,132.4
"2009-05-19 01:20:00",899033,6.485,172.9,1.063,0.09,21.51,110.4826,26.13,27.16,10.28,0,111.3,13.09,26.98,134.9
"2009-05-19 01:20:30",899034,6.545,172.3,0.794,0.123,21.54,110.479,26.13,27.14,10.27,0,111.3,13.09,26.97,134.3
"2009-05-19 01:21:00",899035,6.651,172.3,0.541,0.127,21.62,110.4733,26.11,27.15,10.24,0,111.3,13.09,26.95,134.3
"2009-05-19 01:21:30",899036,6.695,172.6,0.53,0.124,21.64,110.4717,26.11,27.15,10.24,0,111.3,13.09,26.95,134.6
"2009-05-19 01:22:00",899037,6.662,173.9,0.78,0.112,21.6,110.4714,26.11,27.13,10.24,0,111.3,13.09,26.95,135.9
"2009-05-19 01:22:30",899038,6.648,174.7,1.183,0.194,21.57,110.4714,26.11,27.12,10.24,0,111.3,13.09,26.95,136.7
"2009-05-19 01:23:00",899039,6.936,176.1,1.348,0.259,21.61,110.4714,26.11,27.11,10.27,0,111.3,13.1,26.95,138.1
"2009-05-19 01:23:30",899040,7.021,175.8,0.865,0.193,21.58,110.47,26.1,27.09,10.28,0,111.3,13.1,26.95,137.8
"2009-05-19 01:24:00",899041,6.477,171.7,1.497,0.106,21.66,110.468,26.1,27.09,10.31,0,111.3,13.1,26.94,133.7
"2009-05-19 01:24:30",899042,6.669,175.3,0.834,0.157,21.61,110.4624,26.08,27.08,10.32,0,111.3,13.1,26.93,137.3
"2009-05-19 01:25:00",899043,6.723,176,0.645,0.128,21.64,110.4545,26.06,27.09,10.29,0,111.3,13.1,26.91,138.0
"2009-05-19 01:25:30",899044,6.605,175.6,0.744,0.147,21.63,110.4489,26.05,27.07,10.27,0,111.3,13.1,26.89,137.6
"2009-05-19 01:26:00",899045,6.185,173.5,1.027,0.102,21.67,110.4475,26.04,27.08,10.25,0,111.3,13.1,26.89,135.5
"2009-05-19 01:26:30",899046,5.861,171.2,1.747,0.207,21.69,110.4467,26.04,27.07,10.27,0,111.3,13.1,26.89,133.2
"2009-05-19 01:27:00",899047,5.767,170.4,0.594,0.039,21.73,110.4461,26.04,27.05,10.26,0,111.3,13.1,26.88,132.4
"2009-05-19 01:27:30",899048,5.727,170.5,1.069,0.112,21.73,110.4456,26.04,27.05,10.26,0,111.3,13.1,26.88,132.5
"2009-05-19 01:28:00",899049,5.624,168.7,0.992,0.093,21.73,110.443,26.03,27.05,10.28,0,111.3,13.1,26.88,130.7
"2009-05-19 01:28:30",899050,5.632,168.8,0.567,0.035,21.71,110.4428,26.03,27.04,10.2,0,111.3,13.1,26.88,130.8
"2009-05-19 01:29:00",899051,5.478,168.4,0.913,0.109,21.66,110.4408,26.03,27.04,10.21,0,111.3,13.1,26.87,130.4
"2009-05-19 01:29:30",899052,5.313,168.7,0.91,0.063,21.69,110.4388,26.02,27.05,10.21,0,111.3,13.1,26.86,130.7
"2009-05-19 01:30:00",899053,5.296,169.7,0.692,0.089,21.67,110.4383,26.02,27.04,10.22,0,111.3,13.1,26.86,131.7
"2009-05-19 01:30:30",899054,5.277,169.2,0.659,0.057,21.65,110.4377,26.02,27.04,10.23,0,111.2,13.1,26.86,131.2
"2009-05-19 01:31:00",899055,5.318,167.4,0.784,0.087,21.68,110.4377,26.02,27.05,10.23,0,111.3,13.1,26.86,129.4
"2009-05-19 01:31:30",899056,5.454,166.5,0.652,0.047,21.64,110.4377,26.02,27.04,10.23,0,111.3,13.1,26.86,128.5
"2009-05-19 01:32:00",899057,5.584,165.9,0.419,0.031,21.58,110.4377,26.02,27.03,10.23,0,111.3,13.1,26.86,127.9
"2009-05-19 01:32:30",899058,5.564,163.9,0.982,0.051,21.56,110.4377,26.02,27.02,10.22,0,111.2,13.1,26.86,125.9
"2009-05-19 01:33:00",899059,5.552,162.3,0.657,0.049,21.54,110.4377,26.02,27.03,10.23,0,111.2,13.1,26.86,124.3
"2009-05-19 01:33:30",899060,5.523,161.9,0.512,0.082,21.58,110.4377,26.02,27.03,10.21,0,111.2,13.1,26.86,123.9
"2009-05-19 01:34:00",899061,5.447,161.4,0.636,0.068,21.64,110.4369,26.02,27.01,10.22,0,111.2,13.1,26.86,123.4
"2009-05-19 01:34:30",899062,5.468,162,0.546,0.054,21.69,110.427,25.99,27.01,10.2,0,111.2,13.1,26.83,124.0
"2009-05-19 01:35:00",899063,5.468,163.1,0.297,0.071,21.72,110.4133,25.96,27.02,10.16,0,111.2,13.1,26.80,125.1
"2009-05-19 01:35:30",899064,5.395,160.4,0.891,0.057,21.78,110.4122,25.95,27.01,10.17,0,111.2,13.1,26.80,122.4
"2009-05-19 01:36:00",899065,5.46,160.8,0.658,0.062,21.82,110.4054,25.94,27,10.18,0,111.2,13.1,26.78,122.8
"2009-05-19 01:36:30",899066,5.612,161.3,0.333,0.056,21.85,110.4043,25.93,26.99,10.19,0,111.2,13.1,26.78,123.3
"2009-05-19 01:37:00",899067,5.783,160.8,0.522,0.056,21.95,110.409,25.95,26.98,10.19,0,111.2,13.1,26.79,122.8
"2009-05-19 01:37:30",899068,5.868,161.7,0.661,0.07,21.98,110.4067,25.94,26.98,10.25,0,111.2,13.1,26.78,123.7
"2009-05-19 01:38:00",899069,5.737,163.5,0.66,0.078,22.05,110.398,25.92,26.96,10.27,0,111.2,13.1,26.76,125.5
"2009-05-19 01:38:30",899070,5.718,163.1,0.695,0.037,22.12,110.3899,25.9,26.94,10.32,0,111.2,13.1,26.74,125.1
"2009-05-19 01:39:00",899071,5.757,162.9,0.723,0.062,22.13,110.3849,25.88,26.94,10.35,0,111.2,13.1,26.73,124.9
"2009-05-19 01:39:30",899072,5.874,163.1,0.669,0.044,22.08,110.3924,25.9,26.93,10.36,0,111.2,13.1,26.75,125.1
"2009-05-19 01:40:00",899073,5.982,161.5,0.736,0.042,22.07,110.3934,25.91,26.92,10.34,0,111.2,13.1,26.75,123.5
"2009-05-19 01:40:30",899074,6.347,160.9,0.628,0.172,22.08,110.3805,25.87,26.9,10.34,0,111.2,13.1,26.71,122.9
"2009-05-19 01:41:00",899075,6.805,165.5,2.135,0.4,22.13,110.369,25.84,26.88,10.48,0,111.2,13.1,26.68,127.5
"2009-05-19 01:41:30",899076,7.744,164.4,2.068,0.413,22.31,110.3649,25.83,26.88,10.7,0,111.2,13.1,26.67,126.4
"2009-05-19 01:42:00",899077,8.15,163.8,2.342,0.21,22.32,110.3638,25.83,26.85,10.8,0,111.2,13.11,26.67,125.8
"2009-05-19 01:42:30",899078,8.35,165,2.514,0.356,22.35,110.3489,25.79,26.84,10.81,0,111.2,13.11,26.63,127.0
"2009-05-19 01:43:00",899079,7.776,166.6,1.36,0.1,22.35,110.3424,25.77,26.82,10.81,0,111.2,13.11,26.62,128.6
"2009-05-19 01:43:30",899080,7.703,165.4,0.848,0.099,22.31,110.3401,25.77,26.81,10.75,0,111.2,13.11,26.61,127.4
"2009-05-19 01:44:00",899081,7.557,165.6,2.004,0.128,22.17,110.3389,25.77,26.79,10.78,0,111.2,13.11,26.61,127.6
"2009-05-19 01:44:30",899082,7.016,166.7,1.929,0.218,22.14,110.3388,25.77,26.78,10.88,0,111.2,13.11,26.61,128.7
"2009-05-19 01:45:00",899083,7.378,176.6,5.337,0.495,22.11,110.329,25.74,26.76,11.11,0,111.2,13.11,26.58,138.6
"2009-05-19 01:45:30",899084,6.572,175.3,5.901,0.273,22.12,110.3146,25.7,26.75,11.14,0,111.2,13.11,26.54,137.3
"2009-05-19 01:46:00",899085,6.528,167.3,2.856,0.326,22.09,110.3065,25.68,26.72,11,0,111.2,13.11,26.52,129.3
"2009-05-19 01:46:30",899086,6.086,165.7,3.189,0.162,22.12,110.3065,25.68,26.69,10.93,0,111.2,13.12,26.52,127.7
"2009-05-19 01:47:00",899087,5.419,166.3,2.844,0.202,22.1,110.2975,25.66,26.66,10.85,0,111.2,13.12,26.50,128.3
"2009-05-19 01:47:30",899088,5.8,165.3,2.776,0.104,22.17,110.2824,25.62,26.66,10.83,0,111.2,13.12,26.46,127.3
"2009-05-19 01:48:00",899089,5.739,160.2,1.63,0.194,22.17,110.2748,25.6,26.64,10.71,0,111.2,13.12,26.44,122.2